,,Stat5,,Stat1,,Stat2,,Stat3,,Stat4,,Wind1,,Wind1,
time,status,PA1M_AVG,status,PR1M_SUM,status,RH1M_AVG,status,SR1M_AVG,status,TA1M_AVG,status,W1dAve1m,status,W1sAve1m,
2000-10-27, 00:00:00,VALID,918.334,VALID,0,VALID,90.2127,VALID,-0.0849042,VALID,19.9286,VALID,98,VALID,0.240184,
2000-10-27, 00:01:00,VALID,918.338,VALID,0,VALID,89.7994,VALID,-0.0509425,VALID,19.9316,VALID,122,VALID,0.369449,
2000-10-27, 00:02:00,VALID,918.341,VALID,0,VALID,89.7473,VALID,0.0169808,VALID,19.9823,VALID,103,VALID,0.223067,
2000-10-27, 00:03:00,VALID,918.354,VALID,0,VALID,90.1949,VALID,0,VALID,20.0148,VALID,111,VALID,0,
2000-10-27, 00:04:00,VALID,918.341,VALID,0,VALID,90.8472,VALID,0,VALID,19.9828,VALID,106,VALID,0.559245,
2000-10-27, 00:05:00,VALID,918.332,VALID,0,VALID,90.9032,VALID,0,VALID,19.866,VALID,94,VALID,1.3713,
2000-10-27, 00:06:00,VALID,918.315,VALID,0,VALID,90.4976,VALID,0.0169808,VALID,19.8496,VALID,97,VALID,1.34863,
2000-10-27, 00:07:00,VALID,918.32,VALID,0,VALID,90.509,VALID,0,VALID,19.8791,VALID,102,VALID,0.80957,
2000-10-27, 00:08:00,VALID,918.311,VALID,0,VALID,90.5649,VALID,0,VALID,19.9182,VALID,120,VALID,0.197115,
2000-10-27, 00:09:00,VALID,918.324,VALID,0,VALID,90.5433,VALID,-0.0339617,VALID,19.9241,VALID,115,VALID,0.165039,
2000-10-27, 00:10:00,VALID,918.33,VALID,0,VALID,90.5649,VALID,0.0169808,VALID,19.9246,VALID,103,VALID,0.258203,
2000-10-27, 00:11:00,VALID,918.332,VALID,0,VALID,90.2877,VALID,-0.0169808,VALID,19.9147,VALID,80,VALID,0.608108,
2000-10-27, 00:12:00,VALID,918.314,VALID,0,VALID,90.1021,VALID,0,VALID,20.0151,VALID,81,VALID,0.49641,
2000-10-27, 00:13:00,VALID,918.314,VALID,0,VALID,90.0589,VALID,0,VALID,20.0181,VALID,75,VALID,0.561719,
2000-10-27, 00:14:00,VALID,918.31,VALID,0,VALID,89.9533,VALID,0,VALID,20.07,VALID,80,VALID,0.363715,
2000-10-27, 00:15:00,VALID,918.294,VALID,0,VALID,89.8719,VALID,0,VALID,20.1061,VALID,96,VALID,0.115785,
2000-10-27, 00:16:00,VALID,918.29,VALID,0,VALID,89.8757,VALID,0,VALID,20.1085,VALID,96,VALID,0.0392795,
2000-10-27, 00:17:00,VALID,918.262,VALID,0,VALID,89.8961,VALID,-0.0169808,VALID,20.1282,VALID,112,VALID,0.174805,
2000-10-27, 00:18:00,VALID,918.256,VALID,0,VALID,90.008,VALID,-0.0169808,VALID,20.1411,VALID,116,VALID,0.126563,
2000-10-27, 00:19:00,VALID,918.243,VALID,0,VALID,90.022,VALID,-0.0169808,VALID,20.1406,VALID,116,VALID,0,
2000-10-27, 00:20:00,VALID,918.241,VALID,0,VALID,90.1466,VALID,-0.0169808,VALID,20.1448,VALID,114,VALID,0,
2000-10-27, 00:21:00,VALID,918.23,VALID,0,VALID,90.069,VALID,-0.0169808,VALID,20.0988,VALID,108,VALID,0,
2000-10-27, 00:22:00,VALID,918.225,VALID,0,VALID,90.5065,VALID,-0.0169808,VALID,20.0802,VALID,109,VALID,0,
2000-10-27, 00:23:00,VALID,918.23,VALID,0,VALID,90.5777,VALID,0,VALID,20.0568,VALID,109,VALID,0,
2000-10-27, 00:24:00,VALID,918.235,VALID,0,VALID,90.6819,VALID,-0.0339617,VALID,20.0479,VALID,109,VALID,0,
2000-10-27, 00:25:00,VALID,918.223,VALID,0,VALID,90.846,VALID,0,VALID,20.0313,VALID,109,VALID,0,
2000-10-27, 00:26:00,VALID,918.204,VALID,0,VALID,90.9871,VALID,0,VALID,20.0091,VALID,127,VALID,0.483953,
2000-10-27, 00:27:00,VALID,918.178,VALID,0,VALID,91.1016,VALID,0,VALID,19.9632,VALID,136,VALID,0.440584,
2000-10-27, 00:28:00,VALID,918.176,VALID,0,VALID,91.3292,VALID,0,VALID,19.9376,VALID,170,VALID,0.169643,
2000-10-27, 00:29:00,VALID,918.166,VALID,0,VALID,91.7285,VALID,0.0169808,VALID,19.8958,VALID,239,VALID,0.451522,
2000-10-27, 00:30:00,VALID,918.171,VALID,0,VALID,92.1328,VALID,-0.0169808,VALID,19.8541,VALID,245,VALID,0.39536,
2000-10-27, 00:31:00,VALID,918.177,VALID,0,VALID,92.0616,VALID,0,VALID,19.7989,VALID,224,VALID,0.29145,
2000-10-27, 00:32:00,VALID,918.168,VALID,0,VALID,92.2091,VALID,0,VALID,19.7661,VALID,169,VALID,0.176398,
2000-10-27, 00:33:00,VALID,918.174,VALID,0,VALID,92.2575,VALID,0,VALID,19.7606,VALID,157,VALID,0.000200321,
2000-10-27, 00:34:00,VALID,918.164,VALID,0,VALID,91.5059,VALID,-0.0169808,VALID,19.7382,VALID,143,VALID,0.532227,
2000-10-27, 00:35:00,VALID,918.154,VALID,0,VALID,91.7539,VALID,0,VALID,19.7576,VALID,128,VALID,0.419866,
2000-10-27, 00:36:00,VALID,918.144,VALID,0,VALID,91.8251,VALID,0,VALID,19.7733,VALID,129,VALID,0.0122466,
2000-10-27, 00:37:00,VALID,918.149,VALID,0,VALID,91.6255,VALID,0,VALID,19.7599,VALID,162,VALID,0,
2000-10-27, 00:38:00,VALID,918.148,VALID,0,VALID,91.8353,VALID,0,VALID,19.7827,VALID,196,VALID,0,
2000-10-27, 00:39:00,VALID,918.157,VALID,0,VALID,92.1099,VALID,0,VALID,19.7825,VALID,196,VALID,0,
2000-10-27, 00:40:00,VALID,918.149,VALID,0,VALID,91.8582,VALID,0,VALID,19.7663,VALID,196,VALID,0,
2000-10-27, 00:41:00,VALID,918.169,VALID,0,VALID,91.8658,VALID,-0.0169808,VALID,19.7795,VALID,149,VALID,0.362664,
2000-10-27, 00:42:00,VALID,918.149,VALID,0,VALID,92.4622,VALID,0,VALID,19.7666,VALID,113,VALID,0.177679,
2000-10-27, 00:43:00,VALID,918.164,VALID,0,VALID,92.4965,VALID,0,VALID,19.7703,VALID,113,VALID,0,
2000-10-27, 00:44:00,VALID,918.148,VALID,0,VALID,91.9891,VALID,0,VALID,19.7797,VALID,113,VALID,0,
2000-10-27, 00:45:00,VALID,918.148,VALID,0,VALID,92.2854,VALID,0,VALID,19.7956,VALID,155,VALID,0.000868056,
2000-10-27, 00:46:00,VALID,918.137,VALID,0,VALID,92.6491,VALID,-0.0339617,VALID,19.812,VALID,192,VALID,0.0951891,
2000-10-27, 00:47:00,VALID,918.12,VALID,0,VALID,92.7368,VALID,0.101885,VALID,19.8106,VALID,192,VALID,0.173678,
2000-10-27, 00:48:00,VALID,918.119,VALID,0,VALID,92.1176,VALID,0.0679233,VALID,19.7976,VALID,192,VALID,0.257031,
2000-10-27, 00:49:00,VALID,918.103,VALID,0,VALID,91.7005,VALID,0.118866,VALID,19.8014,VALID,190,VALID,0.263616,
2000-10-27, 00:50:00,VALID,918.079,VALID,0,VALID,91.272,VALID,0.101885,VALID,19.7974,VALID,153,VALID,0.413429,
2000-10-27, 00:51:00,VALID,918.058,VALID,0,VALID,91.0011,VALID,0.101885,VALID,19.8327,VALID,136,VALID,0.313189,
2000-10-27, 00:52:00,VALID,918.045,VALID,0,VALID,90.9324,VALID,0.118866,VALID,19.8781,VALID,136,VALID,0,
2000-10-27, 00:53:00,VALID,918.043,VALID,0,VALID,90.9858,VALID,0.101885,VALID,19.91,VALID,134,VALID,0,
2000-10-27, 00:54:00,VALID,918.038,VALID,0,VALID,91.1308,VALID,0.101885,VALID,19.936,VALID,134,VALID,0,
2000-10-27, 00:55:00,VALID,918.024,VALID,0,VALID,91.1206,VALID,0.101885,VALID,19.936,VALID,110,VALID,0,
2000-10-27, 00:56:00,VALID,918.007,VALID,0,VALID,92.1278,VALID,0.118866,VALID,19.9266,VALID,108,VALID,0.0283482,
2000-10-27, 00:57:00,VALID,917.998,VALID,0,VALID,92.26,VALID,0.101885,VALID,19.8784,VALID,101,VALID,0.541066,
2000-10-27, 00:58:00,VALID,917.979,VALID,0,VALID,91.5822,VALID,0.101885,VALID,19.8588,VALID,97,VALID,0.745028,
2000-10-27, 00:59:00,VALID,917.958,VALID,0,VALID,91.7068,VALID,0.0849042,VALID,19.901,VALID,101,VALID,0.776042,
2000-10-27, 01:00:00,VALID,917.946,VALID,0,VALID,91.6725,VALID,0.101885,VALID,19.9239,VALID,112,VALID,0.445518,
2000-10-27, 01:01:00,VALID,917.928,VALID,0,VALID,91.6178,VALID,0.118866,VALID,19.9398,VALID,111,VALID,0.191506,
2000-10-27, 01:02:00,VALID,917.928,VALID,0,VALID,91.5492,VALID,0.0169808,VALID,19.9311,VALID,111,VALID,0,
2000-10-27, 01:03:00,VALID,917.903,VALID,0,VALID,91.8277,VALID,0,VALID,19.9376,VALID,111,VALID,0,
2000-10-27, 01:04:00,VALID,917.888,VALID,0,VALID,92.0667,VALID,0,VALID,19.9569,VALID,111,VALID,0,
2000-10-27, 01:05:00,VALID,917.887,VALID,0,VALID,91.9853,VALID,0,VALID,19.9634,VALID,111,VALID,0,
2000-10-27, 01:06:00,VALID,917.87,VALID,0,VALID,92.0362,VALID,0,VALID,19.986,VALID,111,VALID,0,
2000-10-27, 01:07:00,VALID,917.851,VALID,0,VALID,92.3363,VALID,0,VALID,20.0186,VALID,111,VALID,0,
2000-10-27, 01:08:00,VALID,917.83,VALID,0,VALID,92.6008,VALID,0,VALID,20.0183,VALID,111,VALID,0,
2000-10-27, 01:09:00,VALID,917.818,VALID,0,VALID,92.054,VALID,0,VALID,20.0022,VALID,111,VALID,0,
2000-10-27, 01:10:00,VALID,917.819,VALID,0,VALID,92.0921,VALID,0.0169808,VALID,19.983,VALID,111,VALID,0,
2000-10-27, 01:11:00,VALID,917.79,VALID,0,VALID,92.6478,VALID,0,VALID,19.9706,VALID,111,VALID,0,
2000-10-27, 01:12:00,VALID,917.786,VALID,0,VALID,92.096,VALID,0,VALID,19.9602,VALID,111,VALID,0,
2000-10-27, 01:13:00,VALID,917.78,VALID,0,VALID,91.0863,VALID,0,VALID,19.9766,VALID,100,VALID,0,
2000-10-27, 01:14:00,VALID,917.767,VALID,0,VALID,91.2758,VALID,0,VALID,19.9796,VALID,12,VALID,0.201686,
2000-10-27, 01:15:00,VALID,917.759,VALID,0,VALID,90.9159,VALID,0,VALID,19.983,VALID,14,VALID,0.241186,
2000-10-27, 01:16:00,VALID,917.726,VALID,0,VALID,91.169,VALID,0,VALID,19.9957,VALID,47,VALID,0.00996094,
2000-10-27, 01:17:00,VALID,917.7,VALID,0,VALID,91.0838,VALID,0,VALID,19.9989,VALID,71,VALID,0.0761161,
2000-10-27, 01:18:00,VALID,917.683,VALID,0,VALID,91.2898,VALID,0.0169808,VALID,20.0086,VALID,91,VALID,0,
2000-10-27, 01:19:00,VALID,917.66,VALID,0,VALID,91.1054,VALID,0,VALID,20.0148,VALID,89,VALID,0.0521599,
2000-10-27, 01:20:00,VALID,917.653,VALID,0,VALID,90.7646,VALID,0,VALID,20.0216,VALID,31,VALID,0.313616,
2000-10-27, 01:21:00,VALID,917.659,VALID,0,VALID,91.1245,VALID,0.0339617,VALID,20.0439,VALID,32,VALID,0,
2000-10-27, 01:22:00,VALID,917.629,VALID,0,VALID,90.5166,VALID,0.0339617,VALID,20.0442,VALID,65,VALID,0.0422297,
2000-10-27, 01:23:00,VALID,917.621,VALID,0,VALID,90.6476,VALID,-0.0169808,VALID,20.0501,VALID,81,VALID,0.812911,
2000-10-27, 01:24:00,VALID,917.619,VALID,0,VALID,90.3361,VALID,0.0169808,VALID,20.0633,VALID,93,VALID,0.882589,
2000-10-27, 01:25:00,VALID,917.596,VALID,0,VALID,90.6336,VALID,0.0169808,VALID,20.0695,VALID,95,VALID,0.905849,
2000-10-27, 01:26:00,VALID,917.586,VALID,0,VALID,90.4085,VALID,0,VALID,20.0665,VALID,79,VALID,1.12642,
2000-10-27, 01:27:00,VALID,917.572,VALID,0,VALID,90.0906,VALID,-0.0169808,VALID,20.07,VALID,90,VALID,0.955512,
2000-10-27, 01:28:00,VALID,917.565,VALID,0,VALID,90.1161,VALID,0,VALID,20.0665,VALID,114,VALID,0.283306,
2000-10-27, 01:29:00,VALID,917.544,VALID,0,VALID,90.3297,VALID,0.0339617,VALID,20.0603,VALID,118,VALID,0.0530849,
2000-10-27, 01:30:00,VALID,917.547,VALID,0,VALID,90.3043,VALID,0,VALID,20.0539,VALID,322,VALID,0.330078,
2000-10-27, 01:31:00,VALID,917.535,VALID,0,VALID,90.1975,VALID,0,VALID,20.0412,VALID,321,VALID,0.282366,
2000-10-27, 01:32:00,VALID,917.529,VALID,0,VALID,90.5332,VALID,0,VALID,20.0377,VALID,349,VALID,0.581292,
2000-10-27, 01:33:00,VALID,917.537,VALID,0,VALID,90.9782,VALID,-0.0169808,VALID,20.0377,VALID,20,VALID,0.26942,
2000-10-27, 01:34:00,VALID,917.533,VALID,0,VALID,91.0685,VALID,-0.0169808,VALID,20.0479,VALID,81,VALID,0.773214,
2000-10-27, 01:35:00,VALID,917.528,VALID,0,VALID,90.9858,VALID,0,VALID,20.0447,VALID,87,VALID,0.82492,
2000-10-27, 01:36:00,VALID,917.499,VALID,0,VALID,90.7303,VALID,0,VALID,20.0345,VALID,111,VALID,0.649282,
2000-10-27, 01:37:00,VALID,917.487,VALID,0,VALID,91.0164,VALID,0,VALID,20.0636,VALID,97,VALID,0.619655,
2000-10-27, 01:38:00,VALID,917.478,VALID,0,VALID,91.305,VALID,-0.0169808,VALID,20.0439,VALID,117,VALID,0.46317,
2000-10-27, 01:39:00,VALID,917.469,VALID,0,VALID,91.3254,VALID,0,VALID,20.0051,VALID,115,VALID,0.110978,
2000-10-27, 01:40:00,VALID,917.454,VALID,0,VALID,91.2376,VALID,0,VALID,19.9731,VALID,69,VALID,0.658381,
2000-10-27, 01:41:00,VALID,917.456,VALID,0,VALID,91.0253,VALID,0,VALID,19.9343,VALID,5,VALID,0.649306,
2000-10-27, 01:42:00,VALID,917.459,VALID,0,VALID,91.3012,VALID,0,VALID,19.9184,VALID,314,VALID,0.44264,
2000-10-27, 01:43:00,VALID,917.419,VALID,0,VALID,91.6318,VALID,-0.0169808,VALID,19.8985,VALID,313,VALID,0.0620994,
2000-10-27, 01:44:00,VALID,917.389,VALID,0,VALID,91.3025,VALID,0,VALID,19.8861,VALID,115,VALID,0.473633,
2000-10-27, 01:45:00,VALID,917.348,VALID,0,VALID,91.1626,VALID,-0.0169808,VALID,19.8891,VALID,112,VALID,0.690179,
2000-10-27, 01:46:00,VALID,917.331,VALID,0,VALID,91.4055,VALID,0,VALID,19.8859,VALID,100,VALID,0.612542,
2000-10-27, 01:47:00,VALID,917.315,VALID,0,VALID,91.8811,VALID,0.0169808,VALID,19.8662,VALID,102,VALID,0.675781,
2000-10-27, 01:48:00,VALID,917.293,VALID,0,VALID,91.8493,VALID,0,VALID,19.8272,VALID,96,VALID,0.79442,
2000-10-27, 01:49:00,VALID,917.268,VALID,0,VALID,92.0337,VALID,0,VALID,19.776,VALID,100,VALID,0.266627,
2000-10-27, 01:50:00,VALID,917.241,VALID,0,VALID,91.9128,VALID,0,VALID,19.74,VALID,109,VALID,0.151394,
2000-10-27, 01:51:00,VALID,917.229,VALID,0,VALID,91.7717,VALID,0,VALID,19.7276,VALID,130,VALID,0,
2000-10-27, 01:52:00,VALID,917.208,VALID,0,VALID,91.6089,VALID,0,VALID,19.7211,VALID,64,VALID,0,
2000-10-27, 01:53:00,VALID,917.199,VALID,0,VALID,91.7882,VALID,-0.0339617,VALID,19.7281,VALID,41,VALID,0,
2000-10-27, 01:54:00,VALID,917.172,VALID,0,VALID,91.6636,VALID,0.0339617,VALID,19.7114,VALID,40,VALID,0,
2000-10-27, 01:55:00,VALID,917.137,VALID,0,VALID,91.8874,VALID,-0.0169808,VALID,19.7049,VALID,31,VALID,0,
2000-10-27, 01:56:00,VALID,917.123,VALID,0,VALID,92.2002,VALID,0,VALID,19.7181,VALID,73,VALID,0,
2000-10-27, 01:57:01,VALID,917.096,VALID,0,VALID,91.8544,VALID,0.0169808,VALID,19.7082,VALID,105,VALID,0,
2000-10-27, 01:58:00,VALID,917.086,VALID,0,VALID,91.4169,VALID,0,VALID,19.7146,VALID,120,VALID,0.480273,
2000-10-27, 01:59:00,VALID,917.049,VALID,0,VALID,91.4296,VALID,0,VALID,19.734,VALID,119,VALID,0.711161,
2000-10-27, 02:00:00,VALID,917.048,VALID,0,VALID,91.5962,VALID,-0.0169808,VALID,19.7472,VALID,123,VALID,0.611064,
2000-10-27, 02:01:00,VALID,917.046,VALID,0,VALID,91.8836,VALID,0,VALID,19.7251,VALID,121,VALID,0.394991,
2000-10-27, 02:02:00,VALID,917.035,VALID,0,VALID,92.1341,VALID,0.0169808,VALID,19.6918,VALID,152,VALID,0.310491,
2000-10-27, 02:03:00,VALID,917.015,VALID,0,VALID,92.4368,VALID,0,VALID,19.6699,VALID,234,VALID,0.199519,
2000-10-27, 02:04:00,VALID,917.015,VALID,0,VALID,92.7343,VALID,0,VALID,19.6272,VALID,262,VALID,0.169764,
2000-10-27, 02:05:00,VALID,917.005,VALID,0,VALID,92.6669,VALID,0,VALID,19.575,VALID,263,VALID,0.146382,
2000-10-27, 02:06:00,VALID,916.98,VALID,0,VALID,92.7012,VALID,0,VALID,19.5757,VALID,263,VALID,0.0506696,
2000-10-27, 02:07:00,VALID,916.949,VALID,0,VALID,92.6631,VALID,0.0169808,VALID,19.5628,VALID,263,VALID,0,
2000-10-27, 02:08:00,VALID,916.934,VALID,0,VALID,92.6199,VALID,0,VALID,19.5725,VALID,263,VALID,0,
2000-10-27, 02:09:00,VALID,916.902,VALID,0,VALID,92.246,VALID,0,VALID,19.5794,VALID,294,VALID,0,
2000-10-27, 02:10:00,VALID,916.867,VALID,0,VALID,91.5263,VALID,0,VALID,19.6339,VALID,33,VALID,0.314556,
2000-10-27, 02:11:00,VALID,916.848,VALID,0,VALID,92.302,VALID,0,VALID,19.6602,VALID,104,VALID,0.259215,
2000-10-27, 02:12:00,VALID,916.829,VALID,0,VALID,92.6644,VALID,0,VALID,19.5889,VALID,104,VALID,0.346484,
2000-10-27, 02:13:00,VALID,916.81,VALID,0,VALID,92.9721,VALID,0.0169808,VALID,19.5143,VALID,104,VALID,0.385491,
2000-10-27, 02:14:00,VALID,916.784,VALID,0,VALID,93.1082,VALID,0.0169808,VALID,19.4691,VALID,101,VALID,0.425676,
2000-10-27, 02:15:01,VALID,916.77,VALID,0,VALID,93.2671,VALID,0,VALID,19.4209,VALID,110,VALID,0.517233,
2000-10-27, 02:16:00,VALID,916.742,VALID,0,VALID,93.5024,VALID,0.0679233,VALID,19.3883,VALID,120,VALID,0.100446,
2000-10-27, 02:17:00,VALID,916.742,VALID,0,VALID,93.3383,VALID,-0.0849042,VALID,19.3841,VALID,114,VALID,0,
2000-10-27, 02:18:00,VALID,916.739,VALID,0,VALID,93.229,VALID,-0.0679233,VALID,19.3545,VALID,91,VALID,0,
2000-10-27, 02:19:00,VALID,916.735,VALID,0,VALID,93.3637,VALID,-0.101885,VALID,19.3578,VALID,91,VALID,0,
2000-10-27, 02:20:00,VALID,916.72,VALID,0,VALID,93.3396,VALID,-0.101885,VALID,19.3642,VALID,91,VALID,0,
2000-10-27, 02:21:00,VALID,916.707,VALID,0,VALID,93.2951,VALID,-0.0849042,VALID,19.3508,VALID,91,VALID,0,
2000-10-27, 02:22:00,VALID,916.695,VALID,0,VALID,93.3281,VALID,-0.101885,VALID,19.3483,VALID,91,VALID,0,
2000-10-27, 02:23:00,VALID,916.662,VALID,0,VALID,93.2989,VALID,-0.101885,VALID,19.3418,VALID,107,VALID,0.181424,
2000-10-27, 02:24:01,VALID,916.624,VALID,0,VALID,93.4439,VALID,-0.101885,VALID,19.3158,VALID,119,VALID,0.766859,
2000-10-27, 02:25:00,VALID,916.607,VALID,0,VALID,93.3866,VALID,-0.0849042,VALID,19.2867,VALID,114,VALID,0.608373,
2000-10-27, 02:26:00,VALID,916.596,VALID,0,VALID,93.4629,VALID,-0.101885,VALID,19.2678,VALID,106,VALID,0.586523,
2000-10-27, 02:27:00,VALID,916.578,VALID,0,VALID,93.6524,VALID,-0.0849042,VALID,19.2124,VALID,102,VALID,0.665848,
2000-10-27, 02:28:00,VALID,916.573,VALID,0,VALID,93.8609,VALID,-0.101885,VALID,19.184,VALID,95,VALID,0.789696,
2000-10-27, 02:29:00,VALID,916.557,VALID,0,VALID,93.9411,VALID,-0.0679233,VALID,19.1378,VALID,95,VALID,0.705193,
2000-10-27, 02:30:00,VALID,916.544,VALID,0,VALID,94.0212,VALID,-0.0679233,VALID,19.1217,VALID,89,VALID,0.616071,
2000-10-27, 02:31:00,VALID,916.526,VALID,0,VALID,93.9932,VALID,0,VALID,19.1466,VALID,71,VALID,0.469551,
2000-10-27, 02:32:00,VALID,916.517,VALID,0,VALID,93.9004,VALID,0,VALID,19.1888,VALID,56,VALID,0.769215,
2000-10-27, 02:33:00,VALID,916.512,VALID,0,VALID,93.6499,VALID,0.0169808,VALID,19.2536,VALID,70,VALID,0.702919,
2000-10-27, 02:34:00,VALID,916.491,VALID,0,VALID,93.248,VALID,0,VALID,19.3245,VALID,84,VALID,0.709821,
2000-10-27, 02:35:00,VALID,916.495,VALID,0,VALID,92.9403,VALID,0.0169808,VALID,19.3695,VALID,92,VALID,0.6877,
2000-10-27, 02:36:00,VALID,916.472,VALID,0,VALID,92.7966,VALID,0.0169808,VALID,19.3722,VALID,114,VALID,0.69697,
2000-10-27, 02:37:00,VALID,916.459,VALID,0,VALID,92.6898,VALID,0.0339617,VALID,19.3754,VALID,103,VALID,0.713542,
2000-10-27, 02:38:00,VALID,916.442,VALID,0,VALID,92.7483,VALID,0.0509425,VALID,19.3436,VALID,97,VALID,0.877878,
2000-10-27, 02:39:00,VALID,916.422,VALID,0,VALID,92.9339,VALID,0.0169808,VALID,19.3118,VALID,110,VALID,0.890224,
2000-10-27, 02:40:01,VALID,916.391,VALID,0,VALID,93.1666,VALID,0.0339617,VALID,19.2693,VALID,115,VALID,0.649414,
2000-10-27, 02:41:00,VALID,916.389,VALID,0,VALID,93.2824,VALID,0,VALID,19.2629,VALID,107,VALID,0.383929,
2000-10-27, 02:42:00,VALID,916.393,VALID,0,VALID,93.3294,VALID,0,VALID,19.2691,VALID,109,VALID,0.408361,
2000-10-27, 02:43:00,VALID,916.396,VALID,0,VALID,93.3866,VALID,0.0169808,VALID,19.2691,VALID,114,VALID,0.477252,
2000-10-27, 02:44:00,VALID,916.38,VALID,0,VALID,93.3243,VALID,0.0169808,VALID,19.2827,VALID,114,VALID,0.0223214,
2000-10-27, 02:45:00,VALID,916.376,VALID,0,VALID,93.3091,VALID,0.0169808,VALID,19.2723,VALID,114,VALID,0,
2000-10-27, 02:46:00,VALID,916.363,VALID,0,VALID,93.3523,VALID,0.0169808,VALID,19.2758,VALID,114,VALID,0.145481,
2000-10-27, 02:47:00,VALID,916.349,VALID,0,VALID,93.3472,VALID,0.101885,VALID,19.2847,VALID,118,VALID,0.924548,
2000-10-27, 02:48:00,VALID,916.326,VALID,0,VALID,93.1603,VALID,0.101885,VALID,19.2979,VALID,109,VALID,0.971875,
2000-10-27, 02:49:00,VALID,916.329,VALID,0,VALID,93.3014,VALID,0.101885,VALID,19.282,VALID,98,VALID,0.737179,
2000-10-27, 02:50:01,VALID,916.322,VALID,0,VALID,93.2964,VALID,0.0339617,VALID,19.2852,VALID,76,VALID,0.721591,
2000-10-27, 02:51:00,VALID,916.326,VALID,0,VALID,93.3116,VALID,0.0509425,VALID,19.2686,VALID,91,VALID,0.584201,
2000-10-27, 02:52:00,VALID,916.314,VALID,0,VALID,93.3828,VALID,0.0679233,VALID,19.2621,VALID,98,VALID,0.859169,
2000-10-27, 02:53:00,VALID,916.294,VALID,0,VALID,93.5469,VALID,0.101885,VALID,19.2395,VALID,87,VALID,0.638622,
2000-10-27, 02:54:00,VALID,916.289,VALID,0,VALID,93.7173,VALID,0.0339617,VALID,19.2494,VALID,88,VALID,0.393359,
2000-10-27, 02:55:00,VALID,916.282,VALID,0,VALID,93.716,VALID,0.0679233,VALID,19.2559,VALID,101,VALID,0.285937,
2000-10-27, 02:56:01,VALID,916.268,VALID,0,VALID,93.6371,VALID,0.101885,VALID,19.2656,VALID,101,VALID,0.191723,
2000-10-27, 02:57:00,VALID,916.258,VALID,0,VALID,93.6473,VALID,0.0679233,VALID,19.282,VALID,101,VALID,0.340074,
2000-10-27, 02:58:00,VALID,916.265,VALID,0,VALID,93.744,VALID,0.0849042,VALID,19.2882,VALID,73,VALID,0.541071,
2000-10-27, 02:59:01,VALID,916.266,VALID,0,VALID,93.7185,VALID,0.0679233,VALID,19.3304,VALID,62,VALID,0.333333,
2000-10-27, 03:00:01,VALID,916.258,VALID,0,VALID,93.4146,VALID,0.0849042,VALID,19.3655,VALID,117,VALID,0.252745,
2000-10-27, 03:01:00,VALID,916.242,VALID,0,VALID,92.9772,VALID,0.0849042,VALID,19.3921,VALID,111,VALID,0.294613,
2000-10-27, 03:02:00,VALID,916.238,VALID,0,VALID,92.6288,VALID,-0.0509425,VALID,19.361,VALID,103,VALID,0.132143,
2000-10-27, 03:03:00,VALID,916.222,VALID,0,VALID,92.8424,VALID,-0.0339617,VALID,19.3478,VALID,103,VALID,0.00300481,
2000-10-27, 03:04:00,VALID,916.2,VALID,0,VALID,93.1056,VALID,-0.0679233,VALID,19.3292,VALID,112,VALID,0.108191,
2000-10-27, 03:05:00,VALID,916.203,VALID,0,VALID,93.2379,VALID,-0.0169808,VALID,19.3088,VALID,116,VALID,0.596137,
2000-10-27, 03:06:00,VALID,916.185,VALID,0,VALID,93.435,VALID,0,VALID,19.3058,VALID,97,VALID,0.603413,
2000-10-27, 03:07:01,VALID,916.208,VALID,0,VALID,93.2061,VALID,-0.0169808,VALID,19.2668,VALID,86,VALID,0.309495,
2000-10-27, 03:08:00,VALID,916.221,VALID,0,VALID,93.599,VALID,-0.0169808,VALID,19.2544,VALID,92,VALID,0.378125,
2000-10-27, 03:09:01,VALID,916.221,VALID,0,VALID,94.0123,VALID,-0.0509425,VALID,19.2772,VALID,85,VALID,0.953348,
2000-10-27, 03:10:00,VALID,916.214,VALID,0,VALID,93.9563,VALID,-0.0169808,VALID,19.3548,VALID,88,VALID,0.954181,
2000-10-27, 03:11:01,VALID,916.213,VALID,0,VALID,93.7058,VALID,-0.0339617,VALID,19.3771,VALID,81,VALID,0.765395,
2000-10-27, 03:12:00,VALID,916.22,VALID,0,VALID,93.5965,VALID,0,VALID,19.3771,VALID,85,VALID,0.579687,
2000-10-27, 03:13:01,VALID,916.206,VALID,0,VALID,93.8533,VALID,-0.0169808,VALID,19.3741,VALID,81,VALID,0.731771,
2000-10-27, 03:14:00,VALID,916.181,VALID,0,VALID,93.8164,VALID,-0.0339617,VALID,19.393,VALID,87,VALID,0.961571,
2000-10-27, 03:15:01,VALID,916.165,VALID,0,VALID,93.6588,VALID,-0.0169808,VALID,19.3995,VALID,85,VALID,0.688322,
2000-10-27, 03:16:00,VALID,916.167,VALID,0,VALID,93.8699,VALID,-0.0169808,VALID,19.3804,VALID,70,VALID,0.612054,
2000-10-27, 03:17:00,VALID,916.157,VALID,0,VALID,94.1521,VALID,-0.0509425,VALID,19.3933,VALID,82,VALID,0.584936,
2000-10-27, 03:18:00,VALID,916.144,VALID,0,VALID,94.0847,VALID,-0.0509425,VALID,19.4164,VALID,71,VALID,0.570786,
2000-10-27, 03:19:01,VALID,916.135,VALID,0,VALID,94.1038,VALID,-0.0509425,VALID,19.4353,VALID,76,VALID,0.69553,
2000-10-27, 03:20:00,VALID,916.124,VALID,0,VALID,93.9118,VALID,-0.0339617,VALID,19.4738,VALID,75,VALID,0.815995,
2000-10-27, 03:21:00,VALID,916.115,VALID,0,VALID,93.5456,VALID,-0.0169808,VALID,19.4999,VALID,93,VALID,0.410657,
2000-10-27, 03:22:01,VALID,916.108,VALID,0,VALID,93.5494,VALID,0,VALID,19.5165,VALID,93,VALID,0.237695,
2000-10-27, 03:23:01,VALID,916.086,VALID,0,VALID,93.5252,VALID,-0.0339617,VALID,19.5101,VALID,102,VALID,0.26183,
2000-10-27, 03:24:00,VALID,916.067,VALID,0,VALID,93.5278,VALID,-0.0509425,VALID,19.5138,VALID,104,VALID,0.196791,
2000-10-27, 03:25:01,VALID,916.067,VALID,0,VALID,93.6168,VALID,-0.0679233,VALID,19.5126,VALID,100,VALID,0.0813419,
2000-10-27, 03:26:01,VALID,916.082,VALID,0,VALID,93.4935,VALID,-0.0679233,VALID,19.5292,VALID,99,VALID,0.184375,
2000-10-27, 03:27:01,VALID,916.1,VALID,0,VALID,93.0878,VALID,-0.0169808,VALID,19.5163,VALID,88,VALID,0.704127,
2000-10-27, 03:28:01,VALID,916.1,VALID,0,VALID,93.3447,VALID,-0.0509425,VALID,19.4867,VALID,84,VALID,0.925887,
2000-10-27, 03:29:01,VALID,916.112,VALID,0,VALID,93.6003,VALID,-0.0339617,VALID,19.4813,VALID,84,VALID,0.638569,
2000-10-27, 03:30:01,VALID,916.1,VALID,0,VALID,93.5596,VALID,-0.0339617,VALID,19.4547,VALID,92,VALID,1.03638,
2000-10-27, 03:31:01,VALID,916.114,VALID,0,VALID,93.2887,VALID,-0.0849042,VALID,19.4067,VALID,78,VALID,0.914263,
2000-10-27, 03:32:01,VALID,916.131,VALID,0,VALID,94.025,VALID,0.0679233,VALID,19.3729,VALID,62,VALID,0.956913,
2000-10-27, 03:33:01,VALID,916.15,VALID,0,VALID,94.2259,VALID,0.0509425,VALID,19.3953,VALID,67,VALID,0.598307,
2000-10-27, 03:34:01,VALID,916.173,VALID,0,VALID,94.2094,VALID,0.0339617,VALID,19.4047,VALID,63,VALID,0.270354,
2000-10-27, 03:35:01,VALID,916.185,VALID,0,VALID,94.306,VALID,0.0679233,VALID,19.4244,VALID,42,VALID,0.369391,
2000-10-27, 03:36:01,VALID,916.208,VALID,0,VALID,93.8876,VALID,0.0679233,VALID,19.3918,VALID,25,VALID,0.313867,
2000-10-27, 03:37:01,VALID,916.221,VALID,0,VALID,94.1471,VALID,0.0339617,VALID,19.3662,VALID,66,VALID,0.423438,
2000-10-27, 03:38:01,VALID,916.236,VALID,0,VALID,94.2106,VALID,0.0509425,VALID,19.3528,VALID,75,VALID,0.793919,